Regional Weather Roundup
Issued by NWS

Home | Current Version | Previous Version | Text Only | Print | Product List | Glossary On
Versions: 1 2 3 4 5 6 7 8 9 10 11 12 13 14 15 16 17 18 19 20 21 22 23 24 25 26 27 28 29 30 31 32 33 34 35 36 37 38 39 40 41 42 43 44 45 46 47 48 49 50
000
ASUS42 KFFC 300503
RWRGA
WEATHER ROUNDUP FOR GEORGIA
NATIONAL WEATHER SERVICE PEACHTREE CITY GA
100 AM EDT MON MAR 30 2015

NOTE: "FAIR" INDICATES FEW OR NO CLOUDS BELOW 12,000 FEET WITH NO
SIGNIFICANT WEATHER AND/OR OBSTRUCTIONS TO VISIBILITY.

* = USE WITH CAUTION. THE STATIONS MARKED WITH AN ASTERISK MAY NOT
REPORT WEATHER SUCH AS PRECIPITATION, FOG, OR THUNDER AND ARE NOT
QUALITY CONTROLLED BY NWS.

THE REMARK "TC" DENOTES TEMPERATURE READING IN DEGREES CELSIUS.

GAZ001>058-300600-
NORTH GEORGIA

CITY           SKY/WX    TMP DP  RH WIND       PRES   REMARKS
ATLANTA        PTCLDY    52  26  36 S7        30.22F
ATHENS         PTCLDY    50  23  34 SW8       30.21F
CHAMBLEE       CLEAR     51  26  37 S8        30.21F
PEACHTREE CITY CLEAR     52  28  39 CALM      30.22F
ROME           PTCLDY    49  34  56 CALM      30.18F
WEST ATLANTA   CLEAR     53  26  35 SW3       30.22S
GAINESVILLE    CLEAR     51  24  34 SW3       30.22F
CARTERSVILLE   CLEAR     48  32  53 S3        30.20F


CITY           SKY/WX    TMP DP  RH WIND       PRES   REMARKS
DALTON*        PTCLDY    52  32  46 CALM      30.19F
MARIETTA       CLEAR     52  28  39 S5        30.21S
$$

GAZ059>098-102>109-300600-
CENTRAL GEORGIA

CITY           SKY/WX    TMP DP  RH WIND       PRES   REMARKS
AUGUSTA-BUSH   CLEAR     43  31  62 S8        30.28F
AUGUSTA-DANIEL CLEAR     47  29  49 S8        30.28F
COLUMBUS       CLEAR     53  34  48 S3        30.25S
MACON          CLEAR     46  32  58 CALM      30.26F
ROBINS AFB     CLEAR     45  36  69 SE6       30.26F


CITY           SKY/WX    TMP DP  RH WIND       PRES   REMARKS
LAGRANGE*      CLEAR     54  39  56 S6        30.23F
SYLVANIA*      CLEAR     43  36  74 CALM      30.32F
MILLEDGEVILLE* CLEAR     45  36  70 CALM      30.25F
$$

GAZ099>101-110>166-300600-
SOUTH GEORGIA

CITY           SKY/WX    TMP DP  RH WIND       PRES   REMARKS
SAVANNAH       CLEAR     43  35  73 CALM      30.33F
VALDOSTA       CLEAR     46  41  82 S5        30.32F
ALMA           CLEAR     43  37  79 SE3       30.31F
ST SIMONS      CLEAR     53  38  56 S7        30.32F
FT STEWART     CLEAR     40  35  85 CALM      30.30F
ALBANY         CLEAR     51  37  58 S3        30.31F
HUNTER AFB     CLEAR     42  38  85 SE2       30.30F
MOODY AFB      CLEAR     46  39  76 S5        30.30F
BRUNSWICK      CLEAR     41  37  87 CALM      30.32F


CITY           SKY/WX    TMP DP  RH WIND       PRES   REMARKS
BAINBRIDGE*    CLEAR     54  46  76 SW3       30.31F
MOULTRIE*      CLEAR     48  41  76 CALM      30.31S
VIDALIA*       CLEAR     45  37  76 S5        30.31F
WAYCROSS*      CLEAR     49  42  78 S3        30.31F
DOUGLAS*       CLEAR     48  37  66 CALM      30.33S
$$


USA.gov is the U.S. government's official web portal to all federal, state and local government web resources and services.